Showing default

OV1-5, 2122

Orbit data source: Space-Track

OV1-5, 2122 is a payload satellite owned by USAF OAR (US) in LEO that was launched on Wed, 30 Mar 1966 UTC via an ATLAS D launch vehicle from the Air Force Western Test Range (AFWTR). Payload-class satellites include a variety of spacecraft equipped with specific instruments for various scientific and technological missions. These include communications satellites like Starlink; space stations such as the ISS; scientific satellites like the Hubble; Earth observation satellites from companies like Planet Labs, Umbra, and HawkEye 360; GPS; miniature CubeSats for education and research; and military/defense satellites.

Loading next visibility...
Identifier
2122, 1966-025B
Orbit
LEO
Country
Flag of USUS
Related business
Manufacturer
GD/Convair
Mission
Spacecraft
Bus & Motor
OV1, Unknown motor
Mass
114 kg wet, 114 kg dry
Launch date (UTC)
1966-03-30 (60 years ago)
Launch vehicle
ATLAS D
Launch site
Air Force Western Test Range (AFWTR)
Object type
Payload
Rocket body
Debris
Shape & HBR
Unknown
Radar Cross Section
Medium (>0.1 m² and <1 m²)

Expand to show TLE details & history
Last TLE update: 13 hours ago

TLE from 13 hours ago
0 OV1-5
1  2122U 66025B   25295.07280719  .00000386  00000-0  15184-3 0  9992
2  2122 144.6350 225.3522 0046733  66.8599 293.6990 13.66135925972534
Epoch: 2025-10-22T01:44Z
TLE epoch observation values (Epoch: 2025-10-22T01:44:50.541Z)
Latitude
-0.00002°
Longitude
168.38998°
Altitude
998.75 km
Speed
7.361 km/s
True Right ascension
15h 01m 24s
True Declination
0° 00' 00"
Sunlit
Object was in daylight at epoch
Visualization orbit readout
Latitude
Unknown
Longitude
Unknown
Altitude
Unknown
Speed
Unknown
Apparent Right ascension
Unknown
Apparent Declination
Unknown
Sunlit
N/A
Visualization observer readout
Local Sidereal Time
10:14:11
Azimuth
Unknown
Elevation
Unknown
Doppler factor
Unknown
Orbital elements
Apogee altitude
1,051.003 km
Perigee altitude
981.889 km
Semi-major axis
7,394.583 km
Eccentricity
0.00467
Inclination
144.635°
RAAN
225.3522°
Arg. of periapsis
66.8599°
True anomaly
293.20749°
Mean anomaly
293.699°
Eccentric anomaly
293.45336°
Mean motion
3.41329 °/min
Orbital period
105.47 mins
BSTAR
0.00015184
Loading maneuver chart data...
Computing Atmospheric mass density...
Loading historical data...
Loading historical data...
Loading historical data...
Loading historical data...
Loading historical data...
Loading historical data...
Loading historical data...

Documentation

Showing up to 5 results
|